Bradshaw AFB, HI

2:15 PM HST on November 20, 2019 (GMT -1000)
Bradshaw Army Air Field

Weather History for PHSF - September, 2019

Change the Weather History Date:

Saturday, September 28, 2019

  Actual Average Record
Temperature  
Mean Temperature 65 °F -  
Max Temperature 75 °F 69 °F 78 °F (2018)
Min Temperature 53 °F 49 °F 45 °F (2013)
Growing Degree Days 15 (Base 50)    
Moisture  
Dew Point 57 °F    
Average Humidity 78    
Maximum Humidity 100    
Minimum Humidity 48    
Precipitation  
Precipitation 0.00 in - - ()
Sea Level Pressure  
Sea Level Pressure 29.96 in    
Wind  
Wind Speed 11 mph (WSW)    
Max Wind Speed 24 mph    
Max Gust Speed 32 mph    
Visibility 7 miles    
Events Fog    
Averages and records for this station are not official NWS values.
T = Trace of Precipitation, MM = Missing Value Source: NWS Daily Summary

Daily Weather History Graph

Daily Weather History Graph

Search for Another Location

Airport or City:

Astronomy

Sep. 28, 2019 Rise Set
Actual Time 6:12 AM HST 6:13 PM HST
Civil Twilight 5:50 AM HST 6:34 PM HST
Nautical Twilight 5:24 AM HST 7:00 PM HST
Astronomical Twilight 4:59 AM HST 7:25 PM HST
Moon 6:11 AM HST (9/28) 6:41 PM HST (9/28)
Length of Visible Light 12h 44m
Length of Day
12h 00m
New Moon, 0% of the Moon is Illuminated
Sep 28
New Moon
Oct 5
First Quarter
Oct 13
Full
Oct 21
Last Quarter
Oct 27
New

Hourly Weather History & Observations

Time (HST) Temp. Dew Point Humidity Pressure Visibility Wind Dir Wind Speed Gust Speed Precip Events Conditions
12:58 AM 59.2 °F 47.3 °F 65% 29.91 in 10.0 mi South 16.1 mph - N/A   Clear
1:58 AM 59.9 °F 48.4 °F 66% 29.91 in 10.0 mi South 12.7 mph - N/A   Clear
2:58 AM 58.8 °F 48.4 °F 68% 29.90 in 10.0 mi South 10.4 mph - N/A   Clear
3:58 AM 59.5 °F 48.0 °F 66% 29.92 in 10.0 mi South 16.1 mph - N/A   Clear
4:58 AM 59.2 °F 48.6 °F 68% 29.93 in 10.0 mi South 12.7 mph - N/A   Clear
5:58 AM 60.3 °F 48.4 °F 65% 29.95 in 10.0 mi SSE 10.4 mph 19.6 mph N/A   Clear
6:58 AM 61.0 °F 48.4 °F 63% 29.96 in 9.0 mi SE 4.6 mph - N/A   Clear
7:58 AM 67.3 °F 50.0 °F 54% 29.96 in 10.0 mi South 15.0 mph 23.0 mph N/A   Clear
8:58 AM 68.7 °F 49.3 °F 50% 29.98 in 10.0 mi South 21.9 mph 25.3 mph N/A   Clear
9:58 AM 71.6 °F 51.1 °F 48% 29.96 in 10.0 mi South 12.7 mph 27.6 mph N/A   Clear
10:20 AM 71.6 °F 51.8 °F 50% 29.96 in 10.0 mi South 21.9 mph 29.9 mph N/A   Clear
10:58 AM 73.6 °F 53.2 °F 49% 29.94 in 10.0 mi South 24.2 mph 31.1 mph N/A   Clear
11:58 AM 75.2 °F 54.5 °F 48% 29.91 in 10.0 mi South 21.9 mph 32.2 mph N/A   Scattered Clouds
12:58 PM 72.9 °F 52.5 °F 49% 29.91 in 10.0 mi South 20.7 mph 29.9 mph N/A   Scattered Clouds
1:25 PM 73.4 °F 53.6 °F 50% 29.92 in 10.0 mi SW 17.3 mph 23.0 mph N/A   Scattered Clouds
1:58 PM 72.1 °F 59.5 °F 64% 29.91 in 10.0 mi WSW 8.1 mph - N/A   Scattered Clouds
2:13 PM 73.4 °F 62.6 °F 69% 29.92 in 10.0 mi NW 15.0 mph - N/A   Mostly Cloudy
2:18 PM 71.6 °F 62.6 °F 73% 29.92 in 10.0 mi NNW 15.0 mph - N/A   Scattered Clouds
2:23 PM 71.6 °F 62.6 °F 73% 29.92 in 10.0 mi North 11.5 mph - N/A   Mostly Cloudy
2:43 PM 73.4 °F 55.4 °F 53% 29.92 in 10.0 mi East 4.6 mph - N/A   Scattered Clouds
2:58 PM 71.6 °F 59.0 °F 64% 29.91 in 10.0 mi NW 9.2 mph 23.0 mph N/A   Mostly Cloudy
3:03 PM 71.6 °F 62.6 °F 73% 29.91 in 10.0 mi NW 13.8 mph 17.3 mph N/A   Scattered Clouds
3:08 PM 71.6 °F 60.8 °F 69% 29.91 in 10.0 mi NNE 5.8 mph 17.3 mph N/A   Mostly Cloudy
3:23 PM 69.8 °F 62.6 °F 78% 29.93 in 10.0 mi NW 12.7 mph - N/A   Scattered Clouds
3:28 PM 69.8 °F 62.6 °F 78% 29.92 in 10.0 mi NW 6.9 mph - N/A   Mostly Cloudy
3:43 PM 68.0 °F 60.8 °F 78% 29.94 in 10.0 mi WSW 5.8 mph - N/A   Scattered Clouds
3:58 PM 67.6 °F 57.2 °F 69% 29.93 in 10.0 mi SSW 9.2 mph - N/A   Partly Cloudy
4:58 PM 69.3 °F 58.3 °F 68% 29.92 in 10.0 mi South 11.5 mph - N/A   Clear
5:58 PM 66.2 °F 59.0 °F 78% 29.96 in 10.0 mi Calm Calm - N/A   Mostly Cloudy
6:03 PM 66.2 °F 57.2 °F 73% 29.96 in 10.0 mi WSW 3.5 mph - N/A   Mostly Cloudy
6:58 PM 62.8 °F 59.5 °F 89% 29.98 in 10.0 mi NNW 4.6 mph - N/A   Clear
7:18 PM 62.6 °F 60.8 °F 94% 29.97 in 2.2 mi North 4.6 mph - N/A   Scattered Clouds
7:23 PM 60.8 °F 60.8 °F 100% 29.98 in 1.6 mi North 5.8 mph - N/A   Mostly Cloudy
7:28 PM 60.8 °F 60.8 °F 100% 29.98 in 2.0 mi North 5.8 mph - N/A   Mostly Cloudy
7:38 PM 60.8 °F 60.8 °F 100% 29.98 in 1.5 mi NW 4.6 mph - N/A   Mostly Cloudy
7:47 PM 60.8 °F 59.0 °F 94% 29.99 in 1.2 mi WNW 4.6 mph - N/A   Light Drizzle
7:58 PM 60.6 °F 59.9 °F 97% 29.99 in 1.1 mi NW 4.6 mph - 0.00 in   Light Drizzle
7:59 PM 60.8 °F 60.8 °F 100% 29.99 in 1.0 mi NW 4.6 mph - N/A   Mist
8:04 PM 60.8 °F 60.8 °F 100% 29.99 in 0.8 mi Calm Calm - N/A   Mist
8:07 PM 60.8 °F 60.8 °F 100% 29.99 in 0.5 mi NNE 3.5 mph - N/A Fog Light Drizzle
8:17 PM 60.8 °F 60.8 °F 100% 30.00 in 0.4 mi Calm Calm - N/A Fog Fog
8:27 PM 60.8 °F 59.0 °F 94% 30.01 in 1.4 mi Calm Calm - N/A   Overcast
8:32 PM 60.8 °F 59.0 °F 94% 30.01 in 2.0 mi South 3.5 mph - N/A   Overcast
8:37 PM 60.8 °F 59.0 °F 94% 30.01 in 1.5 mi Calm Calm - N/A   Overcast
8:42 PM 60.8 °F 59.0 °F 94% 30.01 in 1.0 mi Calm Calm - N/A   Mist
8:47 PM 59.0 °F 59.0 °F 100% 30.01 in 1.1 mi Calm Calm - N/A   Mostly Cloudy
8:52 PM 59.0 °F 59.0 °F 100% 30.01 in 2.8 mi Calm Calm - N/A   Mostly Cloudy
8:57 PM 59.0 °F 59.0 °F 100% 30.01 in 4.0 mi Calm Calm - N/A   Scattered Clouds
8:58 PM 59.0 °F 59.0 °F 100% 30.01 in 4.0 mi Calm Calm - 0.00 in   Scattered Clouds
9:58 PM 55.9 °F 55.0 °F 97% 30.01 in 10.0 mi Calm Calm - N/A   Clear
10:58 PM 56.1 °F 53.8 °F 92% 30.01 in 10.0 mi SSE 3.5 mph - N/A   Clear
11:58 PM 53.1 °F 51.6 °F 95% 30.00 in 9.0 mi ENE 3.5 mph - N/A   Clear